Lid_Strength_Index
4 6 7 6 5 6 6 7 8 6 5 6 6 6 5 4 5 5 5 5 4 4 2 1 1 1 0 0 -0 -1 -1 -1 -1 -0 0 -0 0 -1 -1 -1 -2 -2 -2 -2
5 7 5 5 5 6 7 8 8 6 6 6 6 6 6 5 5 5 5 5 4 3 2 2 1 1 1 0 -0 -0 -1 -1 -1 -0 -1 -0 -0 -1 -1 -1 -2 -2 -2 -2
6 6 5 6 6 7 7 7 8 8 6 5 6 7 7 6 5 5 4 4 3 3 3 2 2 1 1 1 0 -0 -0 -1 -1 -1 -1 -0 -1 -0 -0 -0 -1 -1 -2 -2
6 5 6 6 7 6 8 6 7 7 8 10 6 10 8 7 7 6 5 5 4 3 3 2 2 1 1 1 -0 -0 -0 -1 -1 -1 -1 -0 1 1 0 -0 -1 -1 -2 -2
7 6 6 7 7 6 7 6 6 7 8 8 8 9 8 7 7 6 5 5 4 3 3 2 2 1 1 0 0 -0 -1 -1 -1 -1 -1 -0 -0 0 -0 -0 -1 -1 -1 -1
6 4 5 6 6 6 5 6 6 7 8 11 9 9 9 7 7 6 5 4 4 3 3 2 2 1 1 0 0 -0 -0 -1 -1 -1 -1 -1 -0 0 1 0 1 1 1 0
7 6 5 5 7 5 6 7 10 11 10 11 8 9 8 7 6 6 5 5 4 3 3 3 2 2 2 1 1 0 -0 -0 -1 -1 -1 -1 -1 -0 0 1 1 1 2 1
9 10 6 5 6 7 7 7 10 14 13 11 8 10 9 5 5 4 4 4 4 3 3 3 2 3 2 2 1 0 0 0 -0 -0 -1 -1 -0 1 1 1 1 1 2 2
8 9 6 6 6 6 7 8 7 10 9 11 9 8 6 5 5 5 5 4 4 3 3 3 3 2 2 1 1 0 0 0 -0 -0 0 0 0 1 1 1 1 1 1 2
7 10 7 6 6 6 6 6 10 9 14 14 10 10 8 7 7 5 5 5 4 3 3 3 3 2 1 1 0 0 0 1 1 1 1 1 1 2 1 1 2 1 2 2
6 8 8 7 8 8 7 8 8 8 10 13 13 10 6 7 6 5 5 4 4 4 4 3 3 2 2 1 1 1 1 1 1 1 1 2 2 2 2 3 2 2 2 2
6 7 10 9 7 5 6 8 8 10 12 10 11 11 5 5 5 5 5 4 4 4 3 3 3 2 1 1 1 2 1 1 1 1 2 2 2 3 3 3 2 3 3 4
6 8 11 10 8 6 8 7 7 8 9 11 13 11 6 5 5 5 5 4 4 4 3 3 3 2 2 2 2 2 1 1 2 2 2 1 3 4 4 3 3 3 4 5
4 8 9 11 9 8 9 8 7 8 11 10 10 9 7 6 5 5 4 4 4 4 4 3 3 2 2 2 2 2 1 1 2 3 3 3 3 4 4 4 3 4 4 5
6 9 8 8 8 8 8 8 8 9 8 11 9 9 7 6 5 5 4 4 4 4 4 4 3 2 3 3 2 2 1 1 2 3 4 4 4 3 3 3 4 5 5 5
6 9 8 9 8 8 9 8 8 8 8 8 8 8 5 5 4 5 4 4 4 4 4 4 3 3 3 3 2 2 2 2 2 4 5 4 4 4 4 4 5 5 5 5
7 8 10 11 9 9 10 8 8 8 7 7 9 7 5 5 5 5 4 4 4 4 4 4 3 3 3 2 2 2 2 2 2 4 4 4 5 5 5 5 6 5 5 5
8 8 8 10 10 14 8 6 6 8 7 6 6 6 5 5 4 4 3 3 4 4 4 4 3 3 2 2 2 2 2 2 3 4 5 5 5 4 6 6 6 6 5 5
6 7 9 12 11 9 8 7 7 8 9 5 6 5 5 4 4 4 3 3 3 4 3 3 2 2 2 2 2 2 2 3 4 5 6 5 5 5 6 7 6 6 5 5
7 7 9 10 13 14 8 6 5 5 11 5 5 5 5 5 8 6 3 2 3 3 3 2 2 2 2 2 2 3 3 5 5 5 5 5 4 5 6 6 6 5 4 4
10 9 11 10 11 9 6 5 5 12 11 5 4 4 5 6 5 4 2 2 3 3 4 2 2 3 2 2 3 4 5 5 4 4 5 5 4 6 6 5 5 4 3 4
10 11 11 10 11 12 5 6 11 5 4 4 4 4 4 4 3 3 3 3 3 4 4 2 3 3 3 2 4 5 5 4 4 4 5 5 5 6 5 5 4 3 3 4
10 7 9 8 8 5 4 4 3 4 4 4 4 3 3 3 3 3 3 3 3 4 4 2 3 3 3 3 4 6 5 5 4 4 5 5 6 6 5 5 4 3 4 5
6 5 8 7 6 5 4 3 3 3 3 3 3 3 3 3 3 3 3 3 3 3 4 3 3 3 4 3 5 6 5 4 5 4 5 5 7 7 5 4 3 4 5 5
6 6 7 7 5 4 4 3 3 3 3 3 2 2 3 3 3 3 3 3 3 3 4 3 3 3 4 5 6 5 5 5 4 5 5 5 7 7 5 5 3 5 6 7
5 6 8 8 5 5 4 3 3 3 3 3 3 3 2 2 3 2 2 3 3 4 4 3 3 3 5 6 6 5 4 4 4 5 5 6 8 7 5 5 4 9 8 8